Year,Month,Day,Hour,Minute,Value (Times are PST for temperature in C)
2017,04,09,00,00,5.10
2017,04,09,00,01,5.10
2017,04,09,00,02,5.10
2017,04,09,00,03,5.10
2017,04,09,00,04,5.00
2017,04,09,00,05,5.00
2017,04,09,00,06,5.00
2017,04,09,00,07,5.00
2017,04,09,00,08,5.00
2017,04,09,00,09,4.90
2017,04,09,00,10,4.90
2017,04,09,00,11,4.90
2017,04,09,00,12,4.90
2017,04,09,00,13,4.80
2017,04,09,00,14,4.80
2017,04,09,00,15,4.80
2017,04,09,00,16,4.80
2017,04,09,00,17,4.70
2017,04,09,00,18,4.70
2017,04,09,00,19,4.70
2017,04,09,00,20,4.60
2017,04,09,00,21,4.60
2017,04,09,00,22,4.60
2017,04,09,00,23,4.60
2017,04,09,00,24,4.50
2017,04,09,00,25,4.50
2017,04,09,00,26,4.40
2017,04,09,00,27,4.40
2017,04,09,00,28,4.40
2017,04,09,00,29,4.40
2017,04,09,00,30,4.40
2017,04,09,00,31,4.30
2017,04,09,00,32,4.30
2017,04,09,00,33,4.30
2017,04,09,00,34,4.30
2017,04,09,00,35,4.30
2017,04,09,00,36,4.30
2017,04,09,00,37,4.20
2017,04,09,00,38,4.20
2017,04,09,00,39,4.10
2017,04,09,00,40,4.10
2017,04,09,00,41,4.10
2017,04,09,00,42,4.10
2017,04,09,00,43,4.10
2017,04,09,00,44,4.00
2017,04,09,00,45,4.00
2017,04,09,00,46,4.00
2017,04,09,00,47,4.00
2017,04,09,00,48,3.90
2017,04,09,00,49,3.90
2017,04,09,00,50,3.90
2017,04,09,00,51,3.90
2017,04,09,00,52,3.90
2017,04,09,00,53,3.80
2017,04,09,00,54,3.80
2017,04,09,00,55,3.80
2017,04,09,00,56,3.80
2017,04,09,00,57,3.80
2017,04,09,00,58,3.80
2017,04,09,00,59,3.80
2017,04,09,01,00,3.70
2017,04,09,01,01,3.70
2017,04,09,01,02,3.70
2017,04,09,01,03,3.70
2017,04,09,01,04,3.70
2017,04,09,01,05,3.60
2017,04,09,01,06,3.60
2017,04,09,01,07,3.60
2017,04,09,01,08,3.60
2017,04,09,01,09,3.60
2017,04,09,01,10,3.50
2017,04,09,01,11,3.50
2017,04,09,01,12,3.50
2017,04,09,01,13,3.50
2017,04,09,01,14,3.40
2017,04,09,01,15,3.40
2017,04,09,01,16,3.40
2017,04,09,01,17,3.40
2017,04,09,01,18,3.40
2017,04,09,01,19,3.40
2017,04,09,01,20,3.40
2017,04,09,01,21,3.40
2017,04,09,01,22,3.40
2017,04,09,01,23,3.30
2017,04,09,01,24,3.30
2017,04,09,01,25,3.30
2017,04,09,01,26,3.30
2017,04,09,01,27,3.30
2017,04,09,01,28,3.30
2017,04,09,01,29,3.30
2017,04,09,01,30,3.30
2017,04,09,01,31,3.20
2017,04,09,01,32,3.20
2017,04,09,01,33,3.20
2017,04,09,01,34,3.20
2017,04,09,01,35,3.20
2017,04,09,01,36,3.20
2017,04,09,01,37,3.20
2017,04,09,01,38,3.10
2017,04,09,01,39,3.10
2017,04,09,01,40,3.10
2017,04,09,01,41,3.10
2017,04,09,01,42,3.10
2017,04,09,01,43,3.10
2017,04,09,01,44,3.00
2017,04,09,01,45,3.00
2017,04,09,01,46,3.00
2017,04,09,01,47,3.00
2017,04,09,01,48,3.00
2017,04,09,01,49,2.90
2017,04,09,01,50,2.90
2017,04,09,01,51,2.90
2017,04,09,01,52,2.90
2017,04,09,01,53,2.90
2017,04,09,01,54,2.90
2017,04,09,01,55,2.90
2017,04,09,01,56,2.80
2017,04,09,01,57,2.80
2017,04,09,01,58,2.80
2017,04,09,01,59,2.80
2017,04,09,02,00,2.80
2017,04,09,02,01,2.80
2017,04,09,02,02,2.80
2017,04,09,02,03,2.80
2017,04,09,02,04,2.80
2017,04,09,02,05,2.70
2017,04,09,02,06,2.70
2017,04,09,02,07,2.70
2017,04,09,02,08,2.70
2017,04,09,02,09,2.70
2017,04,09,02,10,2.70
2017,04,09,02,11,2.70
2017,04,09,02,12,2.70
2017,04,09,02,13,2.70
2017,04,09,02,14,2.70
2017,04,09,02,15,2.70
2017,04,09,02,16,2.70
2017,04,09,02,17,2.70
2017,04,09,02,18,2.70
2017,04,09,02,19,2.70
2017,04,09,02,20,2.70
2017,04,09,02,21,2.60
2017,04,09,02,22,2.60
2017,04,09,02,23,2.60
2017,04,09,02,24,2.60
2017,04,09,02,25,2.60
2017,04,09,02,26,2.60
2017,04,09,02,27,2.60
2017,04,09,02,28,2.60
2017,04,09,02,29,2.60
2017,04,09,02,30,2.60
2017,04,09,02,31,2.60
2017,04,09,02,32,2.60
2017,04,09,02,33,2.60
2017,04,09,02,34,2.60
2017,04,09,02,35,2.60
2017,04,09,02,36,2.60
2017,04,09,02,37,2.60
2017,04,09,02,38,2.60
2017,04,09,02,39,2.60
2017,04,09,02,40,2.60
2017,04,09,02,41,2.60
2017,04,09,02,42,2.60
2017,04,09,02,43,2.50
2017,04,09,02,44,2.50
2017,04,09,02,45,2.50
2017,04,09,02,46,2.50
2017,04,09,02,47,2.50
2017,04,09,02,48,2.40
2017,04,09,02,49,2.40
2017,04,09,02,50,2.40
2017,04,09,02,51,2.40
2017,04,09,02,52,2.40
2017,04,09,02,53,2.40
2017,04,09,02,54,2.40
2017,04,09,02,55,2.30
2017,04,09,02,56,2.30
2017,04,09,02,57,2.30
2017,04,09,02,58,2.30
2017,04,09,02,59,2.30
2017,04,09,03,00,2.30
2017,04,09,03,01,2.30
2017,04,09,03,02,2.30
2017,04,09,03,03,2.30
2017,04,09,03,04,2.30
2017,04,09,03,05,2.30
2017,04,09,03,06,2.30
2017,04,09,03,07,2.30
2017,04,09,03,08,2.30
2017,04,09,03,09,2.30
2017,04,09,03,10,2.30
2017,04,09,03,11,2.30
2017,04,09,03,12,2.30
2017,04,09,03,13,2.30
2017,04,09,03,14,2.30
2017,04,09,03,15,2.30
2017,04,09,03,16,2.20
2017,04,09,03,17,2.20
2017,04,09,03,18,2.20
2017,04,09,03,19,2.20
2017,04,09,03,20,2.20
2017,04,09,03,21,2.20
2017,04,09,03,22,2.20
2017,04,09,03,23,2.20
2017,04,09,03,24,2.20
2017,04,09,03,25,2.20
2017,04,09,03,26,2.10
2017,04,09,03,27,2.10
2017,04,09,03,28,2.10
2017,04,09,03,29,2.10
2017,04,09,03,30,2.10
2017,04,09,03,31,2.10
2017,04,09,03,32,2.10
2017,04,09,03,33,2.10
2017,04,09,03,34,2.00
2017,04,09,03,35,2.00
2017,04,09,03,36,2.00
2017,04,09,03,37,2.00
2017,04,09,03,38,2.00
2017,04,09,03,39,2.00
2017,04,09,03,40,2.00
2017,04,09,03,41,2.00
2017,04,09,03,42,1.90
2017,04,09,03,43,1.90
2017,04,09,03,44,1.90
2017,04,09,03,45,1.90
2017,04,09,03,46,1.90
2017,04,09,03,47,1.90
2017,04,09,03,48,1.90
2017,04,09,03,49,1.90
2017,04,09,03,50,1.90
2017,04,09,03,51,1.90
2017,04,09,03,52,1.90
2017,04,09,03,53,1.90
2017,04,09,03,54,1.90
2017,04,09,03,55,1.90
2017,04,09,03,56,1.90
2017,04,09,03,57,1.90
2017,04,09,03,58,1.90
2017,04,09,03,59,1.90
2017,04,09,04,00,1.80
2017,04,09,04,01,1.80
2017,04,09,04,02,1.80
2017,04,09,04,03,1.80
2017,04,09,04,04,1.80
2017,04,09,04,05,1.80
2017,04,09,04,06,1.80
2017,04,09,04,07,1.80
2017,04,09,04,08,1.80
2017,04,09,04,09,1.80
2017,04,09,04,10,1.80
2017,04,09,04,11,1.80
2017,04,09,04,12,1.80
2017,04,09,04,13,1.80
2017,04,09,04,14,1.80
2017,04,09,04,15,1.80
2017,04,09,04,16,1.80
2017,04,09,04,17,1.80
2017,04,09,04,18,1.80
2017,04,09,04,19,1.80
2017,04,09,04,20,1.80
2017,04,09,04,21,1.80
2017,04,09,04,22,1.80
2017,04,09,04,23,1.80
2017,04,09,04,24,1.70
2017,04,09,04,25,1.70
2017,04,09,04,26,1.70
2017,04,09,04,27,1.70
2017,04,09,04,28,1.70
2017,04,09,04,29,1.70
2017,04,09,04,30,1.70
2017,04,09,04,31,1.70
2017,04,09,04,32,1.60
2017,04,09,04,33,1.60
2017,04,09,04,34,1.60
2017,04,09,04,35,1.60
2017,04,09,04,36,1.60
2017,04,09,04,37,1.60
2017,04,09,04,38,1.60
2017,04,09,04,39,1.60
2017,04,09,04,40,1.60
2017,04,09,04,41,1.60
2017,04,09,04,42,1.60
2017,04,09,04,43,1.60
2017,04,09,04,44,1.60
2017,04,09,04,45,1.60
2017,04,09,04,46,1.60
2017,04,09,04,47,1.60
2017,04,09,04,48,1.60
2017,04,09,04,49,1.60
2017,04,09,04,50,1.60
2017,04,09,04,51,1.60
2017,04,09,04,52,1.60
2017,04,09,04,53,1.60
2017,04,09,04,54,1.50
2017,04,09,04,55,1.50
2017,04,09,04,56,1.50
2017,04,09,04,57,1.50
2017,04,09,04,58,1.50
2017,04,09,04,59,1.40
2017,04,09,05,00,1.40
2017,04,09,05,01,1.40
2017,04,09,05,02,1.40
2017,04,09,05,03,1.40
2017,04,09,05,04,1.40
2017,04,09,05,05,1.40
2017,04,09,05,06,1.30
2017,04,09,05,07,1.30
2017,04,09,05,08,1.30
2017,04,09,05,09,1.30
2017,04,09,05,10,1.30
2017,04,09,05,11,1.30
2017,04,09,05,12,1.30
2017,04,09,05,13,1.30
2017,04,09,05,14,1.30
2017,04,09,05,15,1.30
2017,04,09,05,16,1.30
2017,04,09,05,17,1.30
2017,04,09,05,18,1.30
2017,04,09,05,19,1.30
2017,04,09,05,20,1.30
2017,04,09,05,21,1.30
2017,04,09,05,22,1.30
2017,04,09,05,23,1.30
2017,04,09,05,24,1.30
2017,04,09,05,25,1.30
2017,04,09,05,26,1.30
2017,04,09,05,27,1.30
2017,04,09,05,28,1.30
2017,04,09,05,29,1.30
2017,04,09,05,30,1.30
2017,04,09,05,31,1.30
2017,04,09,05,32,1.30
2017,04,09,05,33,1.30
2017,04,09,05,34,1.30
2017,04,09,05,35,1.30
2017,04,09,05,36,1.30
2017,04,09,05,37,1.30
2017,04,09,05,38,1.30
2017,04,09,05,39,1.30
2017,04,09,05,40,1.30
2017,04,09,05,41,1.30
2017,04,09,05,42,1.30
2017,04,09,05,43,1.30
2017,04,09,05,44,1.30
2017,04,09,05,45,1.30
2017,04,09,05,46,1.30
2017,04,09,05,47,1.30
2017,04,09,05,48,1.30
2017,04,09,05,49,1.30
2017,04,09,05,50,1.30
2017,04,09,05,51,1.30
2017,04,09,05,52,1.30
2017,04,09,05,53,1.30
2017,04,09,05,54,1.30
2017,04,09,05,55,1.30
2017,04,09,05,56,1.30
2017,04,09,05,57,1.30
2017,04,09,05,58,1.30
2017,04,09,05,59,1.30
2017,04,09,06,00,1.30
2017,04,09,06,01,1.30
2017,04,09,06,02,1.30
2017,04,09,06,03,1.30
2017,04,09,06,04,1.30
2017,04,09,06,05,1.30
2017,04,09,06,06,1.30
2017,04,09,06,07,1.30
2017,04,09,06,08,1.30
2017,04,09,06,09,1.30
2017,04,09,06,10,1.30
2017,04,09,06,11,1.30
2017,04,09,06,12,1.30
2017,04,09,06,13,1.30
2017,04,09,06,14,1.30
2017,04,09,06,15,1.30
2017,04,09,06,16,1.30
2017,04,09,06,17,1.30
2017,04,09,06,18,1.30
2017,04,09,06,19,1.30
2017,04,09,06,20,1.30
2017,04,09,06,21,1.30
2017,04,09,06,22,1.30
2017,04,09,06,23,1.30
2017,04,09,06,24,1.30
2017,04,09,06,25,1.30
2017,04,09,06,26,1.30
2017,04,09,06,27,1.30
2017,04,09,06,28,1.30
2017,04,09,06,29,1.30
2017,04,09,06,30,1.30
2017,04,09,06,31,1.30
2017,04,09,06,32,1.30
2017,04,09,06,33,1.30
2017,04,09,06,34,1.30
2017,04,09,06,35,1.30
2017,04,09,06,36,1.30
2017,04,09,06,37,1.30
2017,04,09,06,38,1.30
2017,04,09,06,39,1.30
2017,04,09,06,40,1.30
2017,04,09,06,41,1.30
2017,04,09,06,42,1.30
2017,04,09,06,43,1.30
2017,04,09,06,44,1.30
2017,04,09,06,45,1.30
2017,04,09,06,46,1.30
2017,04,09,06,47,1.30
2017,04,09,06,48,1.30
2017,04,09,06,49,1.30
2017,04,09,06,50,1.30
2017,04,09,06,51,1.30
2017,04,09,06,52,1.30
2017,04,09,06,53,1.30
2017,04,09,06,54,1.30
2017,04,09,06,55,1.30
2017,04,09,06,56,1.30
2017,04,09,06,57,1.30
2017,04,09,06,58,1.30
2017,04,09,06,59,1.30
2017,04,09,07,00,1.30
2017,04,09,07,01,1.30
2017,04,09,07,02,1.30
2017,04,09,07,03,1.30
2017,04,09,07,04,1.30
2017,04,09,07,05,1.30
2017,04,09,07,06,1.30
2017,04,09,07,07,1.30
2017,04,09,07,08,1.40
2017,04,09,07,09,1.40
2017,04,09,07,10,1.40
2017,04,09,07,11,1.40
2017,04,09,07,12,1.50
2017,04,09,07,13,1.50
2017,04,09,07,14,1.50
2017,04,09,07,15,1.60
2017,04,09,07,16,1.60
2017,04,09,07,17,1.60
2017,04,09,07,18,1.60
2017,04,09,07,19,1.60
2017,04,09,07,20,1.60
2017,04,09,07,21,1.70
2017,04,09,07,22,1.70
2017,04,09,07,23,1.70
2017,04,09,07,24,1.70
2017,04,09,07,25,1.70
2017,04,09,07,26,1.70
2017,04,09,07,27,1.80
2017,04,09,07,28,1.80
2017,04,09,07,29,1.80
2017,04,09,07,30,1.80
2017,04,09,07,31,1.80
2017,04,09,07,32,1.80
2017,04,09,07,33,1.80
2017,04,09,07,34,1.80
2017,04,09,07,35,1.80
2017,04,09,07,36,1.90
2017,04,09,07,37,1.90
2017,04,09,07,38,1.90
2017,04,09,07,39,1.90
2017,04,09,07,40,1.90
2017,04,09,07,41,1.90
2017,04,09,07,42,1.90
2017,04,09,07,43,2.00
2017,04,09,07,44,2.00
2017,04,09,07,45,2.00
2017,04,09,07,46,2.00
2017,04,09,07,47,2.00
2017,04,09,07,48,2.00
2017,04,09,07,49,2.00
2017,04,09,07,50,2.10
2017,04,09,07,51,2.10
2017,04,09,07,52,2.10
2017,04,09,07,53,2.10
2017,04,09,07,54,2.10
2017,04,09,07,55,2.20
2017,04,09,07,56,2.20
2017,04,09,07,57,2.20
2017,04,09,07,58,2.20
2017,04,09,07,59,2.20
2017,04,09,08,00,2.20
2017,04,09,08,01,2.30
2017,04,09,08,02,2.30
2017,04,09,08,03,2.30
2017,04,09,08,04,2.30
2017,04,09,08,05,2.30
2017,04,09,08,06,2.30
2017,04,09,08,07,2.30
2017,04,09,08,08,2.30
2017,04,09,08,09,2.40
2017,04,09,08,10,2.40
2017,04,09,08,11,2.40
2017,04,09,08,12,2.40
2017,04,09,08,13,2.40
2017,04,09,08,14,2.40
2017,04,09,08,15,2.50
2017,04,09,08,16,2.50
2017,04,09,08,17,2.50
2017,04,09,08,18,2.60
2017,04,09,08,19,2.60
2017,04,09,08,20,2.60
2017,04,09,08,21,2.60
2017,04,09,08,22,2.60
2017,04,09,08,23,2.60
2017,04,09,08,24,2.60
2017,04,09,08,25,2.60
2017,04,09,08,26,2.60
2017,04,09,08,27,2.60
2017,04,09,08,28,2.70
2017,04,09,08,29,2.70
2017,04,09,08,30,2.70
2017,04,09,08,31,2.70
2017,04,09,08,32,2.70
2017,04,09,08,33,2.70
2017,04,09,08,34,2.80
2017,04,09,08,35,2.80
2017,04,09,08,36,2.80
2017,04,09,08,37,2.80
2017,04,09,08,38,2.80
2017,04,09,08,39,2.80
2017,04,09,08,40,2.90
2017,04,09,08,41,2.90
2017,04,09,08,42,2.90
2017,04,09,08,43,3.00
2017,04,09,08,44,3.00
2017,04,09,08,45,3.00
2017,04,09,08,46,3.10
2017,04,09,08,47,3.10
2017,04,09,08,48,3.10
2017,04,09,08,49,3.20
2017,04,09,08,50,3.20
2017,04,09,08,51,3.20
2017,04,09,08,52,3.20
2017,04,09,08,53,3.30
2017,04,09,08,54,3.30
2017,04,09,08,55,3.30
2017,04,09,08,56,3.30
2017,04,09,08,57,3.30
2017,04,09,08,58,3.30
2017,04,09,08,59,3.40
2017,04,09,09,00,3.40
2017,04,09,09,01,3.40
2017,04,09,09,02,3.40
2017,04,09,09,03,3.50
2017,04,09,09,04,3.50
2017,04,09,09,05,3.50
2017,04,09,09,06,3.60
2017,04,09,09,07,3.60
2017,04,09,09,08,3.60
2017,04,09,09,09,3.70
2017,04,09,09,10,3.70
2017,04,09,09,11,3.70
2017,04,09,09,12,3.80
2017,04,09,09,13,3.80
2017,04,09,09,14,3.90
2017,04,09,09,15,3.90
2017,04,09,09,16,4.00
2017,04,09,09,17,4.00
2017,04,09,09,18,4.10
2017,04,09,09,19,4.10
2017,04,09,09,20,4.20
2017,04,09,09,21,4.20
2017,04,09,09,22,4.20
2017,04,09,09,23,4.30
2017,04,09,09,24,4.30
2017,04,09,09,25,4.30
2017,04,09,09,26,4.40
2017,04,09,09,27,4.40
2017,04,09,09,28,4.50
2017,04,09,09,29,4.50
2017,04,09,09,30,4.60
2017,04,09,09,31,4.60
2017,04,09,09,32,4.70
2017,04,09,09,33,4.80
2017,04,09,09,34,4.80
2017,04,09,09,35,4.90
2017,04,09,09,36,4.90
2017,04,09,09,37,4.90
2017,04,09,09,38,5.00
2017,04,09,09,39,5.00
2017,04,09,09,40,5.10
2017,04,09,09,41,5.10
2017,04,09,09,42,5.20
2017,04,09,09,43,5.20
2017,04,09,09,44,5.20
2017,04,09,09,45,5.30
2017,04,09,09,46,5.30
2017,04,09,09,47,5.30
2017,04,09,09,48,5.30
2017,04,09,09,49,5.40
2017,04,09,09,50,5.40
2017,04,09,09,51,5.40
2017,04,09,09,52,5.50
2017,04,09,09,53,5.50
2017,04,09,09,54,5.60
2017,04,09,09,55,5.60
2017,04,09,09,56,5.60
2017,04,09,09,57,5.60
2017,04,09,09,58,5.70
2017,04,09,09,59,5.70
2017,04,09,10,00,5.70
2017,04,09,10,01,5.70
2017,04,09,10,02,5.80
2017,04,09,10,03,5.80
2017,04,09,10,04,5.80
2017,04,09,10,05,5.80
2017,04,09,10,06,5.80
2017,04,09,10,07,5.80
2017,04,09,10,08,5.80
2017,04,09,10,09,5.80
2017,04,09,10,10,5.80
2017,04,09,10,11,5.80
2017,04,09,10,12,5.80
2017,04,09,10,13,5.80
2017,04,09,10,14,5.80
2017,04,09,10,15,5.80
2017,04,09,10,16,5.80
2017,04,09,10,17,5.80
2017,04,09,10,18,5.80
2017,04,09,10,19,5.80
2017,04,09,10,20,5.90
2017,04,09,10,21,5.90
2017,04,09,10,22,5.90
2017,04,09,10,23,5.90
2017,04,09,10,24,5.90
2017,04,09,10,25,5.90
2017,04,09,10,26,5.90
2017,04,09,10,27,5.90
2017,04,09,10,28,5.90
2017,04,09,10,29,5.90
2017,04,09,10,30,5.90
2017,04,09,10,31,6.00
2017,04,09,10,32,5.90
2017,04,09,10,33,6.00
2017,04,09,10,34,6.00
2017,04,09,10,35,6.00
2017,04,09,10,36,6.00
2017,04,09,10,37,6.00
2017,04,09,10,38,6.00
2017,04,09,10,39,6.00
2017,04,09,10,40,6.00
2017,04,09,10,41,6.00
2017,04,09,10,42,6.00
2017,04,09,10,43,6.00
2017,04,09,10,44,6.00
2017,04,09,10,45,6.00
2017,04,09,10,46,6.00
2017,04,09,10,47,6.10
2017,04,09,10,48,6.10
2017,04,09,10,49,6.10
2017,04,09,10,50,6.10
2017,04,09,10,51,6.10
2017,04,09,10,52,6.10
2017,04,09,10,53,6.10
2017,04,09,10,54,6.10
2017,04,09,10,55,6.10
2017,04,09,10,56,6.10
2017,04,09,10,57,6.20
2017,04,09,10,58,6.20
2017,04,09,10,59,6.20
2017,04,09,11,00,6.20
2017,04,09,11,01,6.20
2017,04,09,11,02,6.20
2017,04,09,11,03,6.20
2017,04,09,11,04,6.20
2017,04,09,11,05,6.20
2017,04,09,11,06,6.20
2017,04,09,11,07,6.20
2017,04,09,11,08,6.20
2017,04,09,11,09,6.20
2017,04,09,11,10,6.30
2017,04,09,11,11,6.30
2017,04,09,11,12,6.30
2017,04,09,11,13,6.30
2017,04,09,11,14,6.30
2017,04,09,11,15,6.30
2017,04,09,11,16,6.40
2017,04,09,11,17,6.40
2017,04,09,11,18,6.40
2017,04,09,11,19,6.40
2017,04,09,11,20,6.40
2017,04,09,11,21,6.50
2017,04,09,11,22,6.50
2017,04,09,11,23,6.50
2017,04,09,11,24,6.50
2017,04,09,11,25,6.60
2017,04,09,11,26,6.60
2017,04,09,11,27,6.60
2017,04,09,11,28,6.60
2017,04,09,11,29,6.60
2017,04,09,11,30,6.70
2017,04,09,11,31,6.70
2017,04,09,11,32,6.70
2017,04,09,11,33,6.80
2017,04,09,11,34,6.80
2017,04,09,11,35,6.80
2017,04,09,11,36,6.90
2017,04,09,11,37,6.90
2017,04,09,11,38,6.90
2017,04,09,11,39,6.90
2017,04,09,11,40,6.90
2017,04,09,11,41,6.90
2017,04,09,11,42,6.90
2017,04,09,11,43,7.00
2017,04,09,11,44,7.00
2017,04,09,11,45,7.00
2017,04,09,11,46,7.00
2017,04,09,11,47,7.00
2017,04,09,11,48,7.00
2017,04,09,11,49,7.10
2017,04,09,11,50,7.10
2017,04,09,11,51,7.10
2017,04,09,11,52,7.10
2017,04,09,11,53,7.10
2017,04,09,11,54,7.20
2017,04,09,11,55,7.20
2017,04,09,11,56,7.20
2017,04,09,11,57,7.20
2017,04,09,11,58,7.20
2017,04,09,11,59,7.20
2017,04,09,12,00,7.20
2017,04,09,12,01,7.20
2017,04,09,12,02,7.30
2017,04,09,12,03,7.30
2017,04,09,12,04,7.30
2017,04,09,12,05,7.30
2017,04,09,12,06,7.30
2017,04,09,12,07,7.30
2017,04,09,12,08,7.30
2017,04,09,12,09,7.40
2017,04,09,12,10,7.40
2017,04,09,12,11,7.40
2017,04,09,12,12,7.40
2017,04,09,12,13,7.50
2017,04,09,12,14,7.50
2017,04,09,12,15,7.40
2017,04,09,12,16,7.40
2017,04,09,12,17,7.40
2017,04,09,12,18,7.40
2017,04,09,12,19,7.40
2017,04,09,12,20,7.40
2017,04,09,12,21,7.40
2017,04,09,12,22,7.40
2017,04,09,12,23,7.40
2017,04,09,12,24,7.40
2017,04,09,12,25,7.40
2017,04,09,12,26,7.40
2017,04,09,12,27,7.40
2017,04,09,12,28,7.50
2017,04,09,12,29,7.50
2017,04,09,12,30,7.50
2017,04,09,12,31,7.50
2017,04,09,12,32,7.50
2017,04,09,12,33,7.50
2017,04,09,12,34,7.50
2017,04,09,12,35,7.50
2017,04,09,12,36,7.50
2017,04,09,12,37,7.50
2017,04,09,12,38,7.60
2017,04,09,12,39,7.60
2017,04,09,12,40,7.60
2017,04,09,12,41,7.70
2017,04,09,12,42,7.70
2017,04,09,12,43,7.70
2017,04,09,12,44,7.80
2017,04,09,12,45,7.80
2017,04,09,12,46,7.80
2017,04,09,12,47,7.80
2017,04,09,12,48,7.90
2017,04,09,12,49,7.90
2017,04,09,12,50,8.00
2017,04,09,12,51,8.10
2017,04,09,12,52,8.20
2017,04,09,12,53,8.20
2017,04,09,12,54,8.30
2017,04,09,12,55,8.30
2017,04,09,12,56,8.40
2017,04,09,12,57,8.50
2017,04,09,12,58,8.60
2017,04,09,12,59,8.60
2017,04,09,13,00,8.70
2017,04,09,13,01,8.80
2017,04,09,13,02,8.80
2017,04,09,13,03,8.80
2017,04,09,13,04,8.80
2017,04,09,13,05,8.80
2017,04,09,13,06,8.80
2017,04,09,13,07,8.80
2017,04,09,13,08,8.80
2017,04,09,13,09,8.80
2017,04,09,13,10,8.80
2017,04,09,13,11,8.80
2017,04,09,13,12,8.80
2017,04,09,13,13,8.80
2017,04,09,13,14,8.80
2017,04,09,13,15,8.80
2017,04,09,13,16,8.80
2017,04,09,13,17,8.80
2017,04,09,13,18,8.80
2017,04,09,13,19,8.70
2017,04,09,13,20,8.70
2017,04,09,13,21,8.70
2017,04,09,13,22,8.70
2017,04,09,13,23,8.70
2017,04,09,13,24,8.70
2017,04,09,13,25,8.80
2017,04,09,13,26,8.80
2017,04,09,13,27,8.80
2017,04,09,13,28,8.80
2017,04,09,13,29,8.90
2017,04,09,13,30,9.00
2017,04,09,13,31,9.00
2017,04,09,13,32,9.10
2017,04,09,13,33,9.10
2017,04,09,13,34,9.20
2017,04,09,13,35,9.20
2017,04,09,13,36,9.30
2017,04,09,13,37,9.30
2017,04,09,13,38,9.40
2017,04,09,13,39,9.40
2017,04,09,13,40,9.50
2017,04,09,13,41,9.60
2017,04,09,13,42,9.60
2017,04,09,13,43,9.60
2017,04,09,13,44,9.60
2017,04,09,13,45,9.60
2017,04,09,13,46,9.70
2017,04,09,13,47,9.70
2017,04,09,13,48,9.70
2017,04,09,13,49,9.70
2017,04,09,13,50,9.70
2017,04,09,13,51,9.70
2017,04,09,13,52,9.70
2017,04,09,13,53,9.70
2017,04,09,13,54,9.70
2017,04,09,13,55,9.70
2017,04,09,13,56,9.70
2017,04,09,13,57,9.60
2017,04,09,13,58,9.60
2017,04,09,13,59,9.50
2017,04,09,14,00,9.40
2017,04,09,14,01,9.30
2017,04,09,14,02,9.30
2017,04,09,14,03,9.20
2017,04,09,14,04,9.10
2017,04,09,14,05,9.10
2017,04,09,14,06,9.10
2017,04,09,14,07,9.10
2017,04,09,14,08,9.10
2017,04,09,14,09,9.10
2017,04,09,14,10,9.10
2017,04,09,14,11,9.10
2017,04,09,14,12,9.10
2017,04,09,14,13,9.10
2017,04,09,14,14,9.10
2017,04,09,14,15,9.10
2017,04,09,14,16,9.20
2017,04,09,14,17,9.20
2017,04,09,14,18,9.30
2017,04,09,14,19,9.30
2017,04,09,14,20,9.30
2017,04,09,14,21,9.40
2017,04,09,14,22,9.40
2017,04,09,14,23,9.40
2017,04,09,14,24,9.50
2017,04,09,14,25,9.50
2017,04,09,14,26,9.60
2017,04,09,14,27,9.60
2017,04,09,14,28,9.70
2017,04,09,14,29,9.70
2017,04,09,14,30,9.70
2017,04,09,14,31,9.80
2017,04,09,14,32,9.80
2017,04,09,14,33,9.80
2017,04,09,14,34,9.80
2017,04,09,14,35,9.80
2017,04,09,14,36,9.80
2017,04,09,14,37,9.80
2017,04,09,14,38,9.80
2017,04,09,14,39,9.80
2017,04,09,14,40,9.80
2017,04,09,14,41,9.80
2017,04,09,14,42,9.80
2017,04,09,14,43,9.80
2017,04,09,14,44,9.90
2017,04,09,14,45,9.90
2017,04,09,14,46,9.90
2017,04,09,14,47,10.00
2017,04,09,14,48,10.00
2017,04,09,14,49,10.00
2017,04,09,14,50,10.00
2017,04,09,14,51,10.10
2017,04,09,14,52,10.00
2017,04,09,14,53,10.00
2017,04,09,14,54,9.90
2017,04,09,14,55,9.90
2017,04,09,14,56,9.90
2017,04,09,14,57,9.90
2017,04,09,14,58,9.90
2017,04,09,14,59,9.80
2017,04,09,15,00,9.80
2017,04,09,15,01,9.80
2017,04,09,15,02,9.70
2017,04,09,15,03,9.70
2017,04,09,15,04,9.70
2017,04,09,15,05,9.60
2017,04,09,15,06,9.60
2017,04,09,15,07,9.60
2017,04,09,15,08,9.60
2017,04,09,15,09,9.60
2017,04,09,15,10,9.50
2017,04,09,15,11,9.50
2017,04,09,15,12,9.40
2017,04,09,15,13,9.40
2017,04,09,15,14,9.40
2017,04,09,15,15,9.40
2017,04,09,15,16,9.40
2017,04,09,15,17,9.40
2017,04,09,15,18,9.40
2017,04,09,15,19,9.40
2017,04,09,15,20,9.40
2017,04,09,15,21,9.40
2017,04,09,15,22,9.40
2017,04,09,15,23,9.40
2017,04,09,15,24,9.40
2017,04,09,15,25,9.40
2017,04,09,15,26,9.40
2017,04,09,15,27,9.40
2017,04,09,15,28,9.40
2017,04,09,15,29,9.40
2017,04,09,15,30,9.40
2017,04,09,15,31,9.40
2017,04,09,15,32,9.40
2017,04,09,15,33,9.40
2017,04,09,15,34,9.40
2017,04,09,15,35,9.40
2017,04,09,15,36,9.40
2017,04,09,15,37,9.40
2017,04,09,15,38,9.50
2017,04,09,15,39,9.50
2017,04,09,15,40,9.50
2017,04,09,15,41,9.60
2017,04,09,15,42,9.60
2017,04,09,15,43,9.60
2017,04,09,15,44,9.70
2017,04,09,15,45,9.80
2017,04,09,15,46,9.90
2017,04,09,15,47,9.90
2017,04,09,15,48,10.00
2017,04,09,15,49,10.20
2017,04,09,15,50,10.20
2017,04,09,15,51,10.30
2017,04,09,15,52,10.40
2017,04,09,15,53,10.40
2017,04,09,15,54,10.50
2017,04,09,15,55,10.50
2017,04,09,15,56,10.40
2017,04,09,15,57,10.40
2017,04,09,15,58,10.40
2017,04,09,15,59,10.40
2017,04,09,16,00,10.40
2017,04,09,16,01,10.40
2017,04,09,16,02,10.40
2017,04,09,16,03,10.50
2017,04,09,16,04,10.50
2017,04,09,16,05,10.60
2017,04,09,16,06,10.60
2017,04,09,16,07,10.60
2017,04,09,16,08,10.60
2017,04,09,16,09,10.50
2017,04,09,16,10,10.50
2017,04,09,16,11,10.40
2017,04,09,16,12,10.30
2017,04,09,16,13,10.30
2017,04,09,16,14,10.30
2017,04,09,16,15,10.30
2017,04,09,16,16,10.20
2017,04,09,16,17,10.20
2017,04,09,16,18,10.20
2017,04,09,16,19,10.20
2017,04,09,16,20,10.20
2017,04,09,16,21,10.20
2017,04,09,16,22,10.20
2017,04,09,16,23,10.20
2017,04,09,16,24,10.20
2017,04,09,16,25,10.20
2017,04,09,16,26,10.20
2017,04,09,16,27,10.20
2017,04,09,16,28,10.20
2017,04,09,16,29,10.30
2017,04,09,16,30,10.30
2017,04,09,16,31,10.30
2017,04,09,16,32,10.30
2017,04,09,16,33,10.40
2017,04,09,16,34,10.30
2017,04,09,16,35,10.40
2017,04,09,16,36,10.40
2017,04,09,16,37,10.40
2017,04,09,16,38,10.40
2017,04,09,16,39,10.40
2017,04,09,16,40,10.40
2017,04,09,16,41,10.40
2017,04,09,16,42,10.30
2017,04,09,16,43,10.30
2017,04,09,16,44,10.30
2017,04,09,16,45,10.30
2017,04,09,16,46,10.30
2017,04,09,16,47,10.30
2017,04,09,16,48,10.30
2017,04,09,16,49,10.30
2017,04,09,16,50,10.30
2017,04,09,16,51,10.30
2017,04,09,16,52,10.20
2017,04,09,16,53,10.20
2017,04,09,16,54,10.20
2017,04,09,16,55,10.20
2017,04,09,16,56,10.20
2017,04,09,16,57,10.20
2017,04,09,16,58,10.20
2017,04,09,16,59,10.30
2017,04,09,17,00,10.30
2017,04,09,17,01,10.30
2017,04,09,17,02,10.30
2017,04,09,17,03,10.30
2017,04,09,17,04,10.20
2017,04,09,17,05,10.20
2017,04,09,17,06,10.20
2017,04,09,17,07,10.20
2017,04,09,17,08,10.20
2017,04,09,17,09,10.20
2017,04,09,17,10,10.10
2017,04,09,17,11,10.10
2017,04,09,17,12,10.10
2017,04,09,17,13,10.10
2017,04,09,17,14,10.10
2017,04,09,17,15,10.10
2017,04,09,17,16,10.10
2017,04,09,17,17,10.10
2017,04,09,17,18,10.10
2017,04,09,17,19,10.10
2017,04,09,17,20,10.10
2017,04,09,17,21,10.10
2017,04,09,17,22,10.10
2017,04,09,17,23,10.00
2017,04,09,17,24,10.00
2017,04,09,17,25,10.00
2017,04,09,17,26,10.00
2017,04,09,17,27,10.00
2017,04,09,17,28,10.00
2017,04,09,17,29,10.00
2017,04,09,17,30,10.00
2017,04,09,17,31,10.00
2017,04,09,17,32,10.00
2017,04,09,17,33,10.00
2017,04,09,17,34,10.00
2017,04,09,17,35,9.90
2017,04,09,17,36,10.00
2017,04,09,17,37,9.90
2017,04,09,17,38,9.90
2017,04,09,17,39,9.90
2017,04,09,17,40,9.90
2017,04,09,17,41,9.90
2017,04,09,17,42,9.90
2017,04,09,17,43,9.90
2017,04,09,17,44,9.80
2017,04,09,17,45,9.80
2017,04,09,17,46,9.80
2017,04,09,17,47,9.80
2017,04,09,17,48,9.80
2017,04,09,17,49,9.70
2017,04,09,17,50,9.70
2017,04,09,17,51,9.70
2017,04,09,17,52,9.70
2017,04,09,17,53,9.70
2017,04,09,17,54,9.70
2017,04,09,17,55,9.70
2017,04,09,17,56,9.60
2017,04,09,17,57,9.60
2017,04,09,17,58,9.60
2017,04,09,17,59,9.60
2017,04,09,18,00,9.60
2017,04,09,18,01,9.60